Regional Weather Roundup
Issued by NWS Bismarck, ND

Home | Current Version | Previous Version | Text Only | Print | Product List | Glossary On
Versions: 1 2 3 4 5 6 7 8 9 10 11 12 13 14 15 16 17 18 19 20 21 22 23 24 25 26 27 28 29 30 31 32 33 34 35 36 37 38 39 40 41 42 43 44 45 46 47 48 49 50
268
ASUS43 KBIS 200302
RWRBIS

NWR BROADCAST TEXT
NATIONAL WEATHER SERVICE BISMARCK ND
1000 PM CDT TUE SEP 19 2017

NOTE: "FAIR" INDICATES FEW OR NO CLOUDS BELOW 12,000 FEET WITH NO
SIGNIFICANT WEATHER AND/OR OBSTRUCTIONS TO VISIBILITY.


CITY           SKY/WX    TMP DP  RH WIND       PRES   REMARKS
WILLISTON      CLOUDY    54  42  64 W13       29.56F
MINOT          CLOUDY    58  49  72 W20G28    29.48S
MINOT AFB      CLOUDY    56  48  73 W17       29.45F
BISMARCK       LGT RAIN  57  36  45 W16G22    29.56R
DICKINSON      PTCLDY    47  44  90 W12       29.60F
GARRISON         N/A     52  47  83 W20G32    29.50F
HETTINGER ARPT PTCLDY    46  42  86 W12       29.67S
JAMESTOWN      LGT RAIN  62  57  83 NW15      29.50R
CARRINGTON     CLOUDY    61  55  82 NW10G18   29.52R
HAZEN          CLOUDY    54  48  82 W14G20    29.56F
LINTON         FAIR      57  48  72 W15       29.57F
MANDAN         CLOUDY    54  52  94 W21G28    29.55R
RUGBY          CLOUDY    57  55  94 W6        29.48R
STANLEY        LGT RAIN  50  48  93 W14G22    29.56S
TIOGA          MOCLDY    50  50 100 W15       29.55F
WATFORD CITY   FAIR      50  45  81 SW7       29.57F
$$

CITY           SKY/WX    TMP DP  RH WIND       PRES   REMARKS
GRAND FORKS    LGT RAIN  66  65  96 E22G32    29.43R
GRAND FORKS AF CLOUDY    66  64  94 SE16G24   29.45R
DEVILS LAKE    CLOUDY    60  57  89 W12       29.48R
FARGO          CLOUDY    74  67  78 S9G26     29.39F THUNDER
CANDO          MOCLDY    59  59 100 W10       29.49R
CAVALIER       MOCLDY    68  63  83 S13G22    29.40S
GRAFTON        FAIR      66  64  94 SE23G35   29.41R
GWINNER        MOCLDY    64  63  94 SW13G22   29.40F
LANGDON        CLOUDY    64  64 100 W14G23    29.47R FOG
ROLLA          CLOUDY    57  57 100 W8        29.47R
WALHALLA       FAIR     N/A N/A N/A SW5       29.41R
$$

CITY           SKY/WX    TMP DP  RH WIND       PRES   REMARKS
ABERDEEN       CLOUDY    65  55  70 NW23G30   29.51R
MOBRIDGE       CLOUDY    58  50  75 W17G23    29.59R
BUFFALO          N/A     46  43  89 SW13      29.65R
GLASGOW        PTCLDY    48  36  63 SW5       29.58S
SIDNEY         CLOUDY    52  38  58 SW9       29.60S
WOLF POINT     CLOUDY    51  39  63 SW6       29.59S
GLENDIVE         N/A     48  38  68 W8        29.65R
MILES CITY     CLEAR     47  37  68 S7        29.67F
BAKER          CLEAR     45  38  76 SW10G25   29.69R
$$

CITY           SKY/WX    TMP DP  RH WIND       PRES   REMARKS
BILLINGS       CLOUDY    48  37  65 SW9       29.73R
GREAT FALLS    CLOUDY    46  32  58 SW21G31   29.66R
$$





USA.gov is the U.S. government's official web portal to all federal, state and local government web resources and services.